Showing default

LUCH, 23426

Orbit data source: Space-Track

LUCH, 23426 is a payload satellite owned by VKS (CIS) in GEO that was launched on Fri, 16 Dec 1994 UTC via a PROTON-K/DM-2 launch vehicle from the Tyuratam Missile And Space Complex (TTMTR). Payloads include a variety of satellites, spacecraft, and rockets equipped with specific instruments for various scientific and technological missions. These include communications satellites like Starlink; space stations such as the ISS; scientific satellites like the Hubble; Earth observation satellites from companies like Planet Labs, Umbra, and HawkEye 360; GPS; miniature CubeSats for education and research; and military/defense satellites.

Not visible in the next 10 days
LUCH details
Identifier
23426, 1994-082A
Orbit
GEO
Last TLE update2 days ago
Origin
Flag of CISVKS (CIS)
ManufacturerNPO PM
MissionDefense Communications
Bus & MotorKAUR-4 AL'TAIR, Unknown motor
Mass2,400 kg wet, ~2,200 kg dry
Launch date (UTC)
1994-12-16 (30 years ago)
Launch vehicle
PROTON-K/DM-2
Launch site
Tyuratam Missile And Space Complex (TTMTR)
Object type
Payload
Rocket body
Debris
Shape & HBRCyl + 2 Pan + 2 Dish, 16 m
Radar Cross Section40.926 m², Large (>1 m²)

Expand to show TLE details & history

TLE from 2 days ago
0 LUCH
1 23426U 94082A   25013.72108994 -.00000143  00000-0  00000-0 0  9990
2 23426  14.7909 358.6309 0006711 207.7889 152.1952  1.00267432110056
Epoch: 2025-01-13T17:18Z
Definitive object data (Epoch: 2025-01-13T17:18:22.17Z)
Latitude
Longitude-14.37051°
Altitude35,812.256 km
Speed3.073 km/s
True Right ascension23h 54m 38s
True Declination0° 00' 00"
Sunlit
Object was in daylight at TLE epoch
Visualization TLE readout
Latitude14.69253°
Longitude83.01104°
Altitude35,796.753 km
Speed3.074 km/s
Apparent Right ascension06h 51m 30s
Apparent Declination9° 07' 50"
Sunlit
Object is in daylight
Visualization observer readout
Local Sidereal Time00:20:46
Azimuth78.09° E
Elevation0.036°
Doppler factor1
Orbital elements
Apogee altitude35,817.082 km
Perigee altitude35,760.485 km
Semi-major axis42,166.921 km
Eccentricity0.0006711
Inclination14.7909°
RAAN358.6309°
Arg. of periapsis207.7889°
True anomaly152.23105°
Mean anomaly152.1952°
Eccentric anomaly152.21313°
Mean motion0.25066 °/min
BSTARUnknown
Orbital period1436.21 mins
Loading historical data...
23426 neighbors
Authenticating...
Loading maneuver chart data...
Loading historical data...
Loading historical data...
Loading historical data...
Loading historical data...
Loading historical data...
Loading historical data...
Loading historical data...

LUCH Visibility forecast

Observer location: undefined°, undefined

LUCH is not visible in the next 10 days
Span
Click to sort rows by Start time (UTC) header in descending order
Start Az.
Max El. time (UTC)
Max El. Az.
Max El.
End time (UTC)
End Az.
|